User: anonymous   Login
Location: Unspecified
(0.0000°N, 0.0000°E)
Time: 09:11:24
(UTC+00:00)
Language:

DOVE 4 - Orbit

View from above orbital plane
View from above orbital plane
View from above satellite
View from above satellite

Ground track
Ground track

The orbit data is extracted from the following two-line orbital elements,

1 39430U 13066Q   19018.14936626  .00000214  00000-0  47757-4 0  9992
2 39430  97.7257 344.8712 0152049  12.6911 347.8051 14.59183976274507
Epoch (UTC): 18 January 2019 03:35:05
Eccentricity: 0.0152049
inclination: 97.7257°
perigee height: 588 km
apogee height: 803 km
right ascension of ascending node: 344.8712°
argument of perigee: 12.6911°
revolutions per day: 14.59183976
mean anomaly at epoch: 347.8051°
orbit number at epoch: 27450

The dashed part of the orbit path shows where the satellite is in the earth's shadow,  

DLR